Hourly Weather Roundup
Issued by NWS Central Illinois

Home | Current Version | Previous Version | Text Only | Print | Product List | Glossary On
Versions: 1 2 3 4 5 6 7 8 9 10 11 12 13 14 15 16 17 18 19 20 21 22 23 24 25 26 27 28 29 30 31 32 33 34 35 36 37 38 39 40 41 42 43 44 45 46 47 48 49 50
000
NZUS43 KILX 172210
HWRILX

Area Weather Roundup
National Weather Service Lincoln IL
400 PM CST FRI NOV 17 2017

NOTE:  "FAIR" indicates few or no clouds below 12,000 feet, with
       no sigificant weather and/or obstructions to visibility.


CITY           SKY/WX    TMP DP  RH WIND       PRES   REMARKS
Bloomington    CLOUDY    42  39  89 S21       29.72F WCI  33
Champaign      CLOUDY    44  38  79 SE17G24   29.80F
Danville       CLOUDY    43  35  73 SE13      29.81F
Decatur        CLOUDY    45  39  79 SE15G24   29.76F
Effingham      CLOUDY    46  42  88 SE13G18   29.84F
Flora          CLOUDY    48  42  79 SE14      29.84F
Galesburg      CLOUDY    45  41  86 SE7       29.67F
Jacksonville   CLOUDY    51  44  76 SE14G22   29.67F
Lacon          CLOUDY    42  41  96 S8        29.70F THUNDER FOG
Lawrenceville  CLOUDY    48  39  71 SE12      29.90F
Litchfield     CLOUDY    49  42  77 SE20G25   29.72F
$$


CITY           SKY/WX    TMP DP  RH WIND       PRES   REMARKS
Lincoln        CLOUDY    46  42  84 S16G25    29.71F
Macomb         CLOUDY    47  42  82 S14       29.67F
Mattoon        CLOUDY    44  39  82 S20       29.81F
Mt Carmel AP   CLOUDY    47  40  77 SE9       29.89F
Olney-Noble AP CLOUDY    46  41  82 SE15      29.87F
Paris AP       CLOUDY    44  39  82 SE13      29.87F
Peoria         CLOUDY    44  41  89 S14       29.70F
Pontiac        TSTM      43  42  97 S24       29.73F WCI  33
Rantoul        CLOUDY    44  39  85 S18G24    29.79F
Robinson       CLOUDY    46  38  74 SE10      29.89F
Springfield    CLOUDY    50  43  77 S16G24    29.72F
Taylorville    CLOUDY    47  41  80 SE16G23   29.74F
$$

...REGIONAL REPORTS...


CITY           SKY/WX    TMP DP  RH WIND       PRES   REMARKS
Chicago O`Hare CLOUDY    42  36  79 S17       29.75F WCI  34
Kankakee       CLOUDY    43  35  73 SE14G22   29.79F
Moline         CLOUDY    45  40  82 SE7       29.63F HAZE
Mount Sterling CLOUDY    50  43  77 S13G18    29.64F
Mount Vernon   MOCLDY    50  42  74 SE7       29.83F
Pittsfield     CLOUDY    54  46  74 SE13      29.65F
Quincy         CLOUDY    52  43  71 SE9       29.62S
Rockford       CLOUDY    39  35  86 SE15      29.72F WCI  31
$$


CITY           SKY/WX    TMP DP  RH WIND       PRES   REMARKS
Burlington     CLOUDY    47  42  83 SE10      29.62F
Cedar Rapids   CLOUDY    43  42  97 S10       29.59F FOG
Des Moines     CLOUDY    51  49  92 SE6       29.54F FOG
Kirksville     CLOUDY    54  53  97 SE12      29.57F
Ottumwa        CLOUDY    48  45  89 SE9       29.57S FOG
St Louis       CLOUDY    54  45  71 SE13      29.72F
$$


CITY           SKY/WX    TMP DP  RH WIND       PRES   REMARKS
Terre Haute    CLOUDY    47  36  65 S10       29.90S
Evansville     CLOUDY    49  41  74 SE8       29.91F
Indianapolis   CLOUDY    47  33  58 SE8       29.92F
Lafayette      CLOUDY    46  34  62 SE7       29.87F
Madison        CLOUDY    37  35  92 S13G23    29.68F FOG     WCI  29
Milwaukee      CLOUDY    43  35  73 S15G23    29.73F
$$






USA.gov is the U.S. government's official web portal to all federal, state and local government web resources and services.